Time,TemperatureF,DewpointF,PressureIn,WindDirection,WindDirectionDegrees,WindSpeedMPH,WindSpeedGustMPH,Humidity,HourlyPrecipIn,Conditions,Clouds,dailyrainin,SoftwareType,DateUTC
2013-12-08 00:03:00,13.6,1.6,30.50,ENE,60,8.0,8.0,58,0.00,,,0.00,VWS V14.01,2013-12-08 06:03:00,
2013-12-08 00:08:00,13.5,1.5,30.50,East,79,7.0,10.0,58,0.00,,,0.00,VWS V14.01,2013-12-08 06:08:00,
2013-12-08 00:13:00,13.5,1.5,30.50,ESE,112,9.0,13.0,58,0.00,,,0.00,VWS V14.01,2013-12-08 06:13:00,
2013-12-08 00:18:00,13.5,1.5,30.49,East,87,7.0,9.0,58,0.00,,,0.00,VWS V14.01,2013-12-08 06:18:00,
2013-12-08 00:23:00,13.5,1.5,30.49,NE,48,5.0,11.0,58,0.00,,,0.00,VWS V14.01,2013-12-08 06:23:00,
2013-12-08 00:28:00,13.6,2.0,30.49,East,83,1.0,4.0,59,0.00,,,0.00,VWS V14.01,2013-12-08 06:28:00,
2013-12-08 00:33:00,13.6,2.0,30.49,East,79,1.0,4.0,59,0.00,,,0.00,VWS V14.01,2013-12-08 06:33:00,
2013-12-08 00:38:00,13.6,2.0,30.48,NE,41,3.0,8.0,59,0.00,,,0.00,VWS V14.01,2013-12-08 06:38:00,
2013-12-08 00:44:00,13.6,2.0,30.48,ENE,66,4.0,7.0,59,0.00,,,0.00,VWS V14.01,2013-12-08 06:44:00,
2013-12-08 00:49:00,13.6,2.0,30.47,East,81,2.0,8.0,59,0.00,,,0.00,VWS V14.01,2013-12-08 06:49:00,
2013-12-08 00:54:00,13.6,2.0,30.48,ENE,66,3.0,4.0,59,0.00,,,0.00,VWS V14.01,2013-12-08 06:54:00,
2013-12-08 00:59:00,13.6,2.0,30.47,ESE,110,7.0,8.0,59,0.00,,,0.00,VWS V14.01,2013-12-08 06:59:00,
2013-12-08 01:04:00,13.6,2.0,30.47,East,79,2.0,8.0,59,0.00,,,0.00,VWS V14.01,2013-12-08 07:04:00,
2013-12-08 01:09:00,13.6,2.0,30.46,East,85,6.0,12.0,59,0.00,,,0.00,VWS V14.01,2013-12-08 07:09:00,
2013-12-08 01:14:00,13.5,2.2,30.46,East,85,3.0,7.0,60,0.00,,,0.00,VWS V14.01,2013-12-08 07:14:00,
2013-12-08 01:19:00,13.5,2.2,30.46,ENE,77,5.0,10.0,60,0.00,,,0.00,VWS V14.01,2013-12-08 07:19:00,
2013-12-08 01:24:00,13.5,2.2,30.45,ESE,123,2.0,10.0,60,0.00,,,0.00,VWS V14.01,2013-12-08 07:24:00,
2013-12-08 01:29:00,13.5,2.2,30.44,ENE,75,7.0,9.0,60,0.00,,,0.00,VWS V14.01,2013-12-08 07:29:00,
2013-12-08 01:34:00,13.5,2.2,30.44,East,81,5.0,12.0,60,0.00,,,0.00,VWS V14.01,2013-12-08 07:34:00,
2013-12-08 01:40:00,13.6,2.3,30.44,East,99,1.0,5.0,60,0.00,,,0.00,VWS V14.01,2013-12-08 07:40:00,
2013-12-08 01:45:00,13.6,2.3,30.44,SE,125,5.0,9.0,60,0.00,,,0.00,VWS V14.01,2013-12-08 07:45:00,
2013-12-08 01:50:00,13.6,2.3,30.43,ESE,109,3.0,8.0,60,0.00,,,0.00,VWS V14.01,2013-12-08 07:50:00,
2013-12-08 01:55:00,13.6,2.3,30.43,East,79,7.0,12.0,60,0.00,,,0.00,VWS V14.01,2013-12-08 07:55:00,
2013-12-08 02:00:00,13.6,2.7,30.42,ENE,77,9.0,13.0,61,0.00,,,0.00,VWS V14.01,2013-12-08 08:00:00,
2013-12-08 02:05:00,13.5,2.6,30.42,East,81,5.0,11.0,61,0.00,,,0.00,VWS V14.01,2013-12-08 08:05:00,
2013-12-08 02:10:00,13.6,2.7,30.42,NE,54,8.0,11.0,61,0.00,,,0.00,VWS V14.01,2013-12-08 08:10:00,
2013-12-08 02:15:00,13.6,2.7,30.41,East,92,6.0,11.0,61,0.00,,,0.00,VWS V14.01,2013-12-08 08:15:00,
2013-12-08 02:20:00,13.6,2.7,30.41,East,86,5.0,11.0,61,0.00,,,0.00,VWS V14.01,2013-12-08 08:20:00,
2013-12-08 02:25:00,13.6,2.7,30.41,East,99,9.0,10.0,61,0.00,,,0.00,VWS V14.01,2013-12-08 08:25:00,
2013-12-08 02:30:00,13.5,2.6,30.40,East,82,7.0,12.0,61,0.00,,,0.00,VWS V14.01,2013-12-08 08:30:00,
2013-12-08 02:35:00,13.5,2.9,30.40,East,89,6.0,15.0,62,0.00,,,0.00,VWS V14.01,2013-12-08 08:35:00,
2013-12-08 02:40:00,13.5,2.6,30.40,ESE,106,7.0,9.0,61,0.00,,,0.00,VWS V14.01,2013-12-08 08:40:00,
2013-12-08 02:45:00,13.6,3.0,30.40,ESE,105,3.0,7.0,62,0.00,,,0.00,VWS V14.01,2013-12-08 08:45:00,
2013-12-08 02:51:00,13.6,3.0,30.40,East,87,6.0,8.0,62,0.00,,,0.00,VWS V14.01,2013-12-08 08:51:00,
2013-12-08 02:56:00,13.7,3.1,30.39,ENE,78,10.0,10.0,62,0.00,,,0.00,VWS V14.01,2013-12-08 08:56:00,
2013-12-08 03:01:00,13.7,3.1,30.39,East,88,10.0,11.0,62,0.00,,,0.00,VWS V14.01,2013-12-08 09:01:00,
2013-12-08 03:06:00,13.7,3.1,30.38,NE,35,6.0,11.0,62,0.00,,,0.00,VWS V14.01,2013-12-08 09:06:00,
2013-12-08 03:11:00,13.7,3.1,30.37,SSE,166,4.0,9.0,62,0.00,,,0.00,VWS V14.01,2013-12-08 09:11:00,
2013-12-08 03:16:00,13.7,3.1,30.37,SE,126,8.0,14.0,62,0.00,,,0.00,VWS V14.01,2013-12-08 09:16:00,
2013-12-08 03:21:00,13.7,3.1,30.37,ESE,120,2.0,10.0,62,0.00,,,0.00,VWS V14.01,2013-12-08 09:21:00,
2013-12-08 03:26:00,13.7,3.1,30.37,SE,127,6.0,8.0,62,0.00,,,0.00,VWS V14.01,2013-12-08 09:26:00,
2013-12-08 03:31:00,13.7,3.1,30.36,ESE,103,8.0,8.0,62,0.00,,,0.00,VWS V14.01,2013-12-08 09:31:00,
2013-12-08 03:37:00,13.8,3.5,30.36,ESE,121,5.0,11.0,63,0.00,,,0.00,VWS V14.01,2013-12-08 09:37:00,
2013-12-08 03:42:00,13.8,3.5,30.36,ESE,102,12.0,17.0,63,0.00,,,0.00,VWS V14.01,2013-12-08 09:42:00,
2013-12-08 03:47:00,13.8,3.5,30.35,East,93,3.0,13.0,63,0.00,,,0.00,VWS V14.01,2013-12-08 09:47:00,
2013-12-08 03:52:00,13.8,3.5,30.35,ESE,114,5.0,10.0,63,0.00,,,0.00,VWS V14.01,2013-12-08 09:52:00,
2013-12-08 03:57:00,13.8,3.9,30.35,SE,127,7.0,8.0,64,0.00,,,0.00,VWS V14.01,2013-12-08 09:57:00,
2013-12-08 04:02:00,13.8,3.9,30.34,SE,125,5.0,12.0,64,0.00,,,0.00,VWS V14.01,2013-12-08 10:02:00,
2013-12-08 04:07:00,13.8,4.2,30.34,ESE,105,1.0,7.0,65,0.00,,,0.00,VWS V14.01,2013-12-08 10:07:00,
2013-12-08 04:12:00,13.8,4.2,30.34,East,100,6.0,11.0,65,0.00,,,0.00,VWS V14.01,2013-12-08 10:12:00,
2013-12-08 04:17:00,13.7,4.5,30.33,ESE,103,1.0,7.0,66,0.00,,,0.00,VWS V14.01,2013-12-08 10:17:00,
2013-12-08 04:22:00,13.7,4.8,30.33,ESE,121,5.0,13.0,67,0.00,,,0.00,VWS V14.01,2013-12-08 10:22:00,
2013-12-08 04:27:00,13.7,4.8,30.33,ESE,112,5.0,9.0,67,0.00,,,0.00,VWS V14.01,2013-12-08 10:27:00,
2013-12-08 04:32:00,13.6,5.0,30.33,ESE,116,4.0,8.0,68,0.00,,,0.00,VWS V14.01,2013-12-08 10:32:00,
2013-12-08 04:37:00,13.6,5.3,30.32,ESE,111,7.0,13.0,69,0.00,,,0.00,VWS V14.01,2013-12-08 10:37:00,
2013-12-08 04:42:00,13.6,5.7,30.32,ESE,107,7.0,13.0,70,0.00,,,0.00,VWS V14.01,2013-12-08 10:42:00,
2013-12-08 04:47:00,13.5,5.6,30.31,East,91,7.0,11.0,70,0.00,,,0.00,VWS V14.01,2013-12-08 10:47:00,
2013-12-08 04:52:00,13.5,5.9,30.31,SE,137,3.0,9.0,71,0.00,,,0.00,VWS V14.01,2013-12-08 10:52:00,
2013-12-08 04:58:00,13.5,5.9,30.30,East,89,2.0,8.0,71,0.00,,,0.00,VWS V14.01,2013-12-08 10:58:00,
2013-12-08 05:03:00,13.6,6.0,30.30,East,100,8.0,8.0,71,0.00,,,0.00,VWS V14.01,2013-12-08 11:03:00,
2013-12-08 05:08:00,13.7,6.1,30.30,ENE,77,8.0,10.0,71,0.00,,,0.00,VWS V14.01,2013-12-08 11:08:00,
2013-12-08 05:13:00,13.7,5.8,30.29,East,100,6.0,9.0,70,0.00,,,0.00,VWS V14.01,2013-12-08 11:13:00,
2013-12-08 05:18:00,13.8,6.2,30.29,East,91,6.0,11.0,71,0.00,,,0.00,VWS V14.01,2013-12-08 11:18:00,
2013-12-08 05:23:00,13.7,6.4,30.28,ESE,102,4.0,14.0,72,0.00,,,0.00,VWS V14.01,2013-12-08 11:23:00,
2013-12-08 05:28:00,13.6,6.9,30.28,ENE,77,8.0,11.0,74,0.00,,,0.00,VWS V14.01,2013-12-08 11:28:00,
2013-12-08 05:33:00,13.5,7.1,30.28,ESE,105,3.0,11.0,75,0.00,,,0.00,VWS V14.01,2013-12-08 11:33:00,
2013-12-08 05:38:00,13.4,7.3,30.28,ESE,110,7.0,11.0,76,0.00,,,0.00,VWS V14.01,2013-12-08 11:38:00,
2013-12-08 05:43:00,13.3,7.4,30.27,ENE,66,9.0,14.0,77,0.00,,,0.00,VWS V14.01,2013-12-08 11:43:00,
2013-12-08 05:48:00,13.1,7.8,30.27,East,91,6.0,11.0,79,0.00,,,0.00,VWS V14.01,2013-12-08 11:48:00,
2013-12-08 05:53:00,13.0,8.0,30.27,ESE,114,8.0,13.0,80,0.00,,,0.00,VWS V14.01,2013-12-08 11:53:00,
2013-12-08 05:58:00,12.9,8.2,30.27,East,79,5.0,7.0,81,0.00,,,0.00,VWS V14.01,2013-12-08 11:58:00,
2013-12-08 06:03:00,12.9,8.4,30.27,East,97,7.0,10.0,82,0.00,,,0.00,VWS V14.01,2013-12-08 12:03:00,
2013-12-08 06:09:00,12.9,8.7,30.26,East,97,2.0,8.0,83,0.00,,,0.00,VWS V14.01,2013-12-08 12:09:00,
2013-12-08 06:14:00,12.9,9.0,30.26,ESE,118,5.0,9.0,84,0.00,,,0.00,VWS V14.01,2013-12-08 12:14:00,
2013-12-08 06:19:00,12.8,8.9,30.26,ESE,110,7.0,7.0,84,0.00,,,0.00,VWS V14.01,2013-12-08 12:19:00,
2013-12-08 06:24:00,12.8,8.9,30.25,ESE,105,9.0,9.0,84,0.00,,,0.00,VWS V14.01,2013-12-08 12:24:00,
2013-12-08 06:29:00,12.8,9.1,30.25,ESE,113,3.0,8.0,85,0.00,,,0.00,VWS V14.01,2013-12-08 12:29:00,
2013-12-08 06:34:00,12.8,9.1,30.25,East,91,8.0,8.0,85,0.00,,,0.00,VWS V14.01,2013-12-08 12:34:00,
2013-12-08 06:39:00,12.7,9.1,30.24,East,95,7.0,7.0,85,0.00,,,0.00,VWS V14.01,2013-12-08 12:39:00,
2013-12-08 06:44:00,12.7,9.3,30.24,ESE,123,5.0,8.0,86,0.00,,,0.00,VWS V14.01,2013-12-08 12:44:00,
2013-12-08 06:49:00,12.7,9.3,30.24,East,87,5.0,9.0,86,0.00,,,0.00,VWS V14.01,2013-12-08 12:49:00,
2013-12-08 06:54:00,12.7,9.3,30.24,ENE,68,2.0,8.0,86,0.00,,,0.00,VWS V14.01,2013-12-08 12:54:00,
2013-12-08 06:59:00,12.8,9.4,30.24,East,91,7.0,9.0,86,0.00,,,0.00,VWS V14.01,2013-12-08 12:59:00,
2013-12-08 07:04:00,12.8,9.4,30.24,ESE,104,4.0,5.0,86,0.00,,,0.00,VWS V14.01,2013-12-08 13:04:00,
2013-12-08 07:09:00,12.8,9.4,30.24,ESE,122,2.0,8.0,86,0.00,,,0.00,VWS V14.01,2013-12-08 13:09:00,
2013-12-08 07:14:00,12.8,9.7,30.24,East,98,3.0,5.0,87,0.00,,,0.00,VWS V14.01,2013-12-08 13:14:00,
2013-12-08 07:19:00,12.8,9.7,30.24,ESE,115,4.0,8.0,87,0.00,,,0.00,VWS V14.01,2013-12-08 13:19:00,
2013-12-08 07:24:00,12.8,9.7,30.24,East,82,3.0,5.0,87,0.00,,,0.00,VWS V14.01,2013-12-08 13:24:00,
2013-12-08 07:29:00,12.8,9.7,30.24,SE,131,3.0,5.0,87,0.00,,,0.00,VWS V14.01,2013-12-08 13:29:00,
2013-12-08 07:34:00,12.8,9.7,30.24,East,84,5.0,5.0,87,0.00,,,0.00,VWS V14.01,2013-12-08 13:34:00,
2013-12-08 07:39:00,12.8,9.7,30.24,East,91,3.0,4.0,87,0.00,,,0.00,VWS V14.01,2013-12-08 13:39:00,
2013-12-08 07:44:00,12.8,9.9,30.23,ESE,104,2.0,5.0,88,0.00,,,0.00,VWS V14.01,2013-12-08 13:44:00,
2013-12-08 07:50:00,12.7,9.8,30.24,ESE,120,2.0,7.0,88,0.00,,,0.00,VWS V14.01,2013-12-08 13:50:00,
2013-12-08 07:55:00,12.8,9.9,30.24,ESE,102,4.0,5.0,88,0.00,,,0.00,VWS V14.01,2013-12-08 13:55:00,
2013-12-08 08:00:00,12.8,9.9,30.24,East,99,2.0,5.0,88,0.00,,,0.00,VWS V14.01,2013-12-08 14:00:00,
2013-12-08 08:05:00,12.9,10.0,30.23,SE,143,2.0,7.0,88,0.00,,,0.00,VWS V14.01,2013-12-08 14:05:00,
2013-12-08 08:10:00,13.0,10.1,30.23,ESE,116,3.0,6.0,88,0.00,,,0.00,VWS V14.01,2013-12-08 14:10:00,
2013-12-08 08:15:00,13.0,10.1,30.23,SE,141,4.0,6.0,88,0.00,,,0.00,VWS V14.01,2013-12-08 14:15:00,
2013-12-08 08:20:00,13.1,10.2,30.23,ESE,111,3.0,7.0,88,0.00,,,0.00,VWS V14.01,2013-12-08 14:20:00,
2013-12-08 08:25:00,13.2,10.3,30.23,ESE,121,4.0,8.0,88,0.00,,,0.00,VWS V14.01,2013-12-08 14:25:00,
2013-12-08 08:30:00,13.3,10.4,30.23,SE,125,2.0,4.0,88,0.00,,,0.00,VWS V14.01,2013-12-08 14:30:00,
2013-12-08 08:35:00,13.4,10.5,30.23,SE,132,2.0,8.0,88,0.00,,,0.00,VWS V14.01,2013-12-08 14:35:00,
2013-12-08 08:40:00,13.6,11.0,30.22,SSE,162,4.0,5.0,89,0.00,,,0.00,VWS V14.01,2013-12-08 14:40:00,
2013-12-08 08:45:00,13.7,11.1,30.22,ESE,103,5.0,7.0,89,0.00,,,0.00,VWS V14.01,2013-12-08 14:45:00,
2013-12-08 08:50:00,13.7,10.8,30.23,East,91,6.0,6.0,88,0.00,,,0.00,VWS V14.01,2013-12-08 14:50:00,
2013-12-08 08:55:00,13.6,10.7,30.22,ESE,118,5.0,7.0,88,0.00,,,0.00,VWS V14.01,2013-12-08 14:55:00,
2013-12-08 09:00:00,13.6,10.7,30.22,SE,125,3.0,5.0,88,0.00,,,0.00,VWS V14.01,2013-12-08 15:00:00,
2013-12-08 09:05:00,13.6,10.7,30.23,East,93,6.0,6.0,88,0.00,,,0.00,VWS V14.01,2013-12-08 15:05:00,
2013-12-08 09:10:00,13.7,10.8,30.23,SE,139,3.0,4.0,88,0.00,,,0.00,VWS V14.01,2013-12-08 15:10:00,
2013-12-08 09:15:00,13.8,10.9,30.22,ESE,120,4.0,5.0,88,0.00,,,0.00,VWS V14.01,2013-12-08 15:15:00,
2013-12-08 09:20:00,13.9,11.0,30.22,SSE,147,2.0,3.0,88,0.00,,,0.00,VWS V14.01,2013-12-08 15:20:00,
2013-12-08 09:25:00,14.0,11.1,30.22,ESE,122,1.0,4.0,88,0.00,,,0.00,VWS V14.01,2013-12-08 15:25:00,
2013-12-08 09:31:00,14.2,11.3,30.21,ESE,122,4.0,6.0,88,0.00,,,0.00,VWS V14.01,2013-12-08 15:31:00,
2013-12-08 09:36:00,14.3,11.4,30.21,East,92,5.0,5.0,88,0.00,,,0.00,VWS V14.01,2013-12-08 15:36:00,
2013-12-08 09:41:00,14.3,11.4,30.21,East,89,5.0,8.0,88,0.00,,,0.00,VWS V14.01,2013-12-08 15:41:00,
2013-12-08 09:46:00,14.4,11.5,30.21,ESE,122,3.0,4.0,88,0.00,,,0.00,VWS V14.01,2013-12-08 15:46:00,
2013-12-08 09:51:00,14.5,11.6,30.21,SE,136,4.0,5.0,88,0.00,,,0.00,VWS V14.01,2013-12-08 15:51:00,
2013-12-08 09:56:00,14.5,11.6,30.20,ESE,110,4.0,7.0,88,0.00,,,0.00,VWS V14.01,2013-12-08 15:56:00,
2013-12-08 10:01:00,14.7,11.8,30.21,SE,131,3.0,7.0,88,0.00,,,0.00,VWS V14.01,2013-12-08 16:01:00,
2013-12-08 10:06:00,14.9,12.0,30.21,ESE,106,3.0,6.0,88,0.00,,,0.00,VWS V14.01,2013-12-08 16:06:00,
2013-12-08 10:11:00,15.1,12.2,30.20,SE,129,2.0,5.0,88,0.00,,,0.00,VWS V14.01,2013-12-08 16:11:00,
2013-12-08 10:16:00,15.3,12.4,30.20,SE,137,3.0,5.0,88,0.00,,,0.00,VWS V14.01,2013-12-08 16:16:00,
2013-12-08 10:21:00,15.4,12.5,30.21,SE,125,3.0,6.0,88,0.00,,,0.00,VWS V14.01,2013-12-08 16:21:00,
2013-12-08 10:26:00,15.5,12.6,30.20,East,97,3.0,4.0,88,0.00,,,0.00,VWS V14.01,2013-12-08 16:26:00,
2013-12-08 10:31:00,15.3,12.1,30.20,SE,141,5.0,8.0,87,0.00,,,0.00,VWS V14.01,2013-12-08 16:31:00,
2013-12-08 10:36:00,15.4,12.2,30.20,ESE,108,3.0,5.0,87,0.00,,,0.00,VWS V14.01,2013-12-08 16:36:00,
2013-12-08 10:41:00,15.8,12.6,30.20,SE,134,3.0,6.0,87,0.00,,,0.00,VWS V14.01,2013-12-08 16:41:00,
2013-12-08 10:46:00,15.8,12.6,30.19,SSE,157,5.0,5.0,87,0.00,,,0.00,VWS V14.01,2013-12-08 16:46:00,
2013-12-08 10:51:00,15.7,12.3,30.19,ESE,112,4.0,7.0,86,0.00,,,0.00,VWS V14.01,2013-12-08 16:51:00,
2013-12-08 10:56:00,15.8,12.4,30.19,SE,139,6.0,7.0,86,0.00,,,0.00,VWS V14.01,2013-12-08 16:56:00,
2013-12-08 11:01:00,16.2,13.0,30.18,SE,127,2.0,6.0,87,0.00,,,0.00,VWS V14.01,2013-12-08 17:01:00,
2013-12-08 11:06:00,16.7,13.5,30.18,SE,142,4.0,4.0,87,0.00,,,0.00,VWS V14.01,2013-12-08 17:06:00,
2013-12-08 11:12:00,16.8,13.4,30.18,SE,130,4.0,7.0,86,0.00,,,0.00,VWS V14.01,2013-12-08 17:12:00,
2013-12-08 11:17:00,16.6,12.9,30.17,ESE,116,8.0,8.0,85,0.00,,,0.00,VWS V14.01,2013-12-08 17:17:00,
2013-12-08 11:22:00,16.7,13.0,30.17,SE,127,4.0,8.0,85,0.00,,,0.00,VWS V14.01,2013-12-08 17:22:00,
2013-12-08 11:27:00,16.8,13.1,30.17,SSE,150,1.0,7.0,85,0.00,,,0.00,VWS V14.01,2013-12-08 17:27:00,
2013-12-08 11:32:00,16.9,13.2,30.16,ENE,73,5.0,7.0,85,0.00,,,0.00,VWS V14.01,2013-12-08 17:32:00,
2013-12-08 11:37:00,16.6,12.6,30.16,ESE,118,7.0,7.0,84,0.00,,,0.00,VWS V14.01,2013-12-08 17:37:00,
2013-12-08 11:42:00,16.5,12.5,30.16,SE,129,3.0,8.0,84,0.00,,,0.00,VWS V14.01,2013-12-08 17:42:00,
2013-12-08 11:47:00,16.6,12.6,30.15,SE,132,3.0,7.0,84,0.00,,,0.00,VWS V14.01,2013-12-08 17:47:00,
2013-12-08 11:52:00,16.7,12.7,30.15,SE,141,5.0,6.0,84,0.00,,,0.00,VWS V14.01,2013-12-08 17:52:00,
2013-12-08 11:57:00,16.8,12.8,30.15,SSE,167,6.0,6.0,84,0.00,,,0.00,VWS V14.01,2013-12-08 17:57:00,
2013-12-08 12:02:00,16.7,12.4,30.14,SE,145,4.0,7.0,83,0.00,,,0.00,VWS V14.01,2013-12-08 18:02:00,
2013-12-08 12:07:00,16.8,12.8,30.14,SSE,161,4.0,5.0,84,0.00,,,0.00,VWS V14.01,2013-12-08 18:07:00,
2013-12-08 12:12:00,16.8,12.5,30.14,SE,127,3.0,5.0,83,0.00,,,0.00,VWS V14.01,2013-12-08 18:12:00,
2013-12-08 12:17:00,16.7,12.4,30.14,SSE,151,5.0,8.0,83,0.00,,,0.00,VWS V14.01,2013-12-08 18:17:00,
2013-12-08 12:22:00,16.8,12.8,30.14,SSE,160,5.0,6.0,84,0.00,,,0.00,VWS V14.01,2013-12-08 18:22:00,
2013-12-08 12:27:00,16.8,12.8,30.14,SE,144,4.0,7.0,84,0.00,,,0.00,VWS V14.01,2013-12-08 18:27:00,
2013-12-08 12:32:00,16.8,13.1,30.13,SSE,147,4.0,6.0,85,0.00,,,0.00,VWS V14.01,2013-12-08 18:32:00,
2013-12-08 12:37:00,16.9,12.9,30.12,SSE,154,4.0,6.0,84,0.00,,,0.00,VWS V14.01,2013-12-08 18:37:00,
2013-12-08 12:42:00,16.8,12.8,30.12,ESE,113,2.0,4.0,84,0.00,,,0.00,VWS V14.01,2013-12-08 18:42:00,
2013-12-08 12:48:00,17.1,13.4,30.12,South,174,4.0,4.0,85,0.00,,,0.00,VWS V14.01,2013-12-08 18:48:00,
2013-12-08 12:53:00,17.3,13.6,30.12,SE,139,3.0,4.0,85,0.00,,,0.00,VWS V14.01,2013-12-08 18:53:00,
2013-12-08 12:58:00,17.3,13.3,30.12,SSE,156,3.0,4.0,84,0.00,,,0.00,VWS V14.01,2013-12-08 18:58:00,
2013-12-08 13:03:00,17.2,13.2,30.12,SSE,148,2.0,5.0,84,0.00,,,0.00,VWS V14.01,2013-12-08 19:03:00,
2013-12-08 13:08:00,17.1,13.1,30.12,SSE,159,2.0,4.0,84,0.00,,,0.00,VWS V14.01,2013-12-08 19:08:00,
2013-12-08 13:13:00,17.1,13.1,30.11,SE,140,3.0,3.0,84,0.00,,,0.00,VWS V14.01,2013-12-08 19:13:00,
2013-12-08 13:18:00,17.1,13.1,30.11,SE,141,4.0,4.0,84,0.00,,,0.00,VWS V14.01,2013-12-08 19:18:00,
2013-12-08 13:23:00,17.0,13.0,30.10,SSE,163,2.0,2.0,84,0.00,,,0.00,VWS V14.01,2013-12-08 19:23:00,
2013-12-08 13:28:00,17.1,13.1,30.10,South,172,4.0,5.0,84,0.00,,,0.00,VWS V14.01,2013-12-08 19:28:00,
2013-12-08 13:33:00,17.2,13.2,30.10,SSE,160,1.0,3.0,84,0.00,,,0.00,VWS V14.01,2013-12-08 19:33:00,
2013-12-08 13:38:00,17.3,13.3,30.10,SSE,162,2.0,3.0,84,0.00,,,0.00,VWS V14.01,2013-12-08 19:38:00,
2013-12-08 13:43:00,17.6,13.9,30.10,SSE,162,0.0,2.0,85,0.00,,,0.00,VWS V14.01,2013-12-08 19:43:00,
2013-12-08 13:48:00,17.6,13.6,30.10,SSE,162,1.0,2.0,84,0.00,,,0.00,VWS V14.01,2013-12-08 19:48:00,
2013-12-08 13:53:00,17.5,13.5,30.09,SSE,158,2.0,3.0,84,0.00,,,0.00,VWS V14.01,2013-12-08 19:53:00,
2013-12-08 13:58:00,17.4,13.4,30.09,SSE,158,0.0,2.0,84,0.00,,,0.00,VWS V14.01,2013-12-08 19:58:00,
2013-12-08 14:03:00,17.5,13.5,30.09,SSE,153,0.0,1.0,84,0.00,,,0.00,VWS V14.01,2013-12-08 20:03:00,
2013-12-08 14:08:00,17.5,13.5,30.09,SSE,153,2.0,2.0,84,0.00,,,0.00,VWS V14.01,2013-12-08 20:08:00,
2013-12-08 14:13:00,17.4,13.4,30.08,SSE,153,1.0,1.0,84,0.00,,,0.00,VWS V14.01,2013-12-08 20:13:00,
2013-12-08 14:18:00,17.5,13.8,30.08,SSE,152,0.0,1.0,85,0.00,,,0.00,VWS V14.01,2013-12-08 20:18:00,
2013-12-08 14:23:00,17.6,13.9,30.08,SSE,149,2.0,3.0,85,0.00,,,0.00,VWS V14.01,2013-12-08 20:23:00,
2013-12-08 14:28:00,17.8,14.3,30.08,SSE,149,0.0,2.0,86,0.00,,,0.00,VWS V14.01,2013-12-08 20:28:00,
2013-12-08 14:33:00,17.9,14.4,30.08,SSE,149,0.0,0.0,86,0.00,,,0.00,VWS V14.01,2013-12-08 20:33:00,
2013-12-08 14:38:00,18.0,14.3,30.08,SSE,149,1.0,1.0,85,0.00,,,0.00,VWS V14.01,2013-12-08 20:38:00,
2013-12-08 14:43:00,17.9,13.9,30.08,SSE,149,0.0,2.0,84,0.00,,,0.00,VWS V14.01,2013-12-08 20:43:00,
2013-12-08 14:48:00,17.8,14.1,30.08,SSE,149,1.0,2.0,85,0.00,,,0.00,VWS V14.01,2013-12-08 20:48:00,
2013-12-08 14:53:00,17.8,14.1,30.08,SSE,149,0.0,1.0,85,0.00,,,0.00,VWS V14.01,2013-12-08 20:53:00,
2013-12-08 14:59:00,17.8,14.1,30.08,SSE,149,1.0,1.0,85,0.00,,,0.00,VWS V14.01,2013-12-08 20:59:00,
2013-12-08 15:04:00,18.0,14.3,30.08,SSE,149,1.0,1.0,85,0.00,,,0.00,VWS V14.01,2013-12-08 21:04:00,
2013-12-08 15:09:00,18.0,14.0,30.08,SSE,149,1.0,2.0,84,0.00,,,0.00,VWS V14.01,2013-12-08 21:09:00,
2013-12-08 15:14:00,17.9,13.9,30.08,SSE,149,1.0,1.0,84,0.00,,,0.00,VWS V14.01,2013-12-08 21:14:00,
2013-12-08 15:19:00,17.9,13.9,30.08,SSE,149,0.0,0.0,84,0.00,,,0.00,VWS V14.01,2013-12-08 21:19:00,
2013-12-08 15:24:00,17.9,13.9,30.08,SSE,149,1.0,1.0,84,0.00,,,0.00,VWS V14.01,2013-12-08 21:24:00,
2013-12-08 15:29:00,17.9,13.9,30.08,SSE,149,0.0,1.0,84,0.00,,,0.00,VWS V14.01,2013-12-08 21:29:00,
2013-12-08 15:34:00,17.8,13.8,30.08,SSE,149,1.0,2.0,84,0.00,,,0.00,VWS V14.01,2013-12-08 21:34:00,
2013-12-08 15:39:00,17.7,14.0,30.08,SSE,149,0.0,1.0,85,0.00,,,0.00,VWS V14.01,2013-12-08 21:39:00,
2013-12-08 15:44:00,17.8,14.1,30.08,SSE,149,0.0,1.0,85,0.00,,,0.00,VWS V14.01,2013-12-08 21:44:00,
2013-12-08 15:49:00,17.7,14.0,30.08,SSE,149,1.0,2.0,85,0.00,,,0.00,VWS V14.01,2013-12-08 21:49:00,
2013-12-08 15:54:00,17.5,13.8,30.08,SSE,149,0.0,1.0,85,0.00,,,0.00,VWS V14.01,2013-12-08 21:54:00,
2013-12-08 16:00:00,17.4,13.7,30.08,SSE,149,0.0,0.0,85,0.00,,,0.00,VWS V14.01,2013-12-08 22:00:00,
2013-12-08 16:05:00,17.3,13.8,30.08,SSE,149,0.0,0.0,86,0.00,,,0.00,VWS V14.01,2013-12-08 22:05:00,
2013-12-08 16:10:00,17.3,13.8,30.08,SSE,149,0.0,2.0,86,0.00,,,0.00,VWS V14.01,2013-12-08 22:10:00,
2013-12-08 16:15:00,17.2,13.7,30.08,NE,35,0.0,2.0,86,0.00,,,0.00,VWS V14.01,2013-12-08 22:15:00,
2013-12-08 16:20:00,17.1,13.6,30.08,NE,35,0.0,0.0,86,0.00,,,0.00,VWS V14.01,2013-12-08 22:20:00,
2013-12-08 16:25:00,17.1,13.6,30.08,NE,35,0.0,0.0,86,0.00,,,0.00,VWS V14.01,2013-12-08 22:25:00,
2013-12-08 16:30:00,17.1,13.6,30.08,NE,35,0.0,0.0,86,0.00,,,0.00,VWS V14.01,2013-12-08 22:30:00,
2013-12-08 16:35:00,17.1,13.6,30.08,NE,35,0.0,1.0,86,0.00,,,0.00,VWS V14.01,2013-12-08 22:35:00,
2013-12-08 16:40:00,17.0,13.5,30.08,NE,35,0.0,0.0,86,0.00,,,0.00,VWS V14.01,2013-12-08 22:40:00,
2013-12-08 16:45:00,17.0,13.5,30.09,NE,35,0.0,1.0,86,0.00,,,0.00,VWS V14.01,2013-12-08 22:45:00,
2013-12-08 16:50:00,17.0,13.8,30.09,NE,35,0.0,1.0,87,0.00,,,0.00,VWS V14.01,2013-12-08 22:50:00,
2013-12-08 16:55:00,16.9,13.7,30.09,NE,35,0.0,0.0,87,0.00,,,0.00,VWS V14.01,2013-12-08 22:55:00,
2013-12-08 17:00:00,16.9,13.7,30.09,NE,35,1.0,1.0,87,0.00,,,0.00,VWS V14.01,2013-12-08 23:00:00,
2013-12-08 17:05:00,16.9,13.7,30.10,NE,35,1.0,1.0,87,0.00,,,0.00,VWS V14.01,2013-12-08 23:05:00,
2013-12-08 17:10:00,16.8,13.6,30.10,WNW,283,0.0,1.0,87,0.00,,,0.00,VWS V14.01,2013-12-08 23:10:00,
2013-12-08 17:15:00,16.8,13.6,30.10,WNW,283,1.0,1.0,87,0.00,,,0.00,VWS V14.01,2013-12-08 23:15:00,
2013-12-08 17:20:00,16.8,13.6,30.11,WNW,282,1.0,2.0,87,0.00,,,0.00,VWS V14.01,2013-12-08 23:20:00,
2013-12-08 17:25:00,16.7,13.5,30.11,WNW,282,0.0,1.0,87,0.00,,,0.00,VWS V14.01,2013-12-08 23:25:00,
2013-12-08 17:30:00,16.7,13.5,30.10,WNW,294,1.0,2.0,87,0.00,,,0.00,VWS V14.01,2013-12-08 23:30:00,
2013-12-08 17:35:00,16.7,13.5,30.10,WNW,295,3.0,3.0,87,0.00,,,0.00,VWS V14.01,2013-12-08 23:35:00,
2013-12-08 17:40:00,16.6,13.4,30.11,WNW,296,1.0,3.0,87,0.00,,,0.00,VWS V14.01,2013-12-08 23:40:00,
2013-12-08 17:45:00,16.6,13.7,30.11,NW,305,0.0,2.0,88,0.00,,,0.00,VWS V14.01,2013-12-08 23:45:00,
2013-12-08 17:50:00,16.5,13.6,30.12,WSW,250,2.0,3.0,88,0.00,,,0.00,VWS V14.01,2013-12-08 23:50:00,
2013-12-08 17:55:00,16.4,13.5,30.13,WSW,245,3.0,3.0,88,0.00,,,0.00,VWS V14.01,2013-12-08 23:55:00,
2013-12-08 18:00:00,16.3,13.4,30.13,WSW,245,2.0,3.0,88,0.00,,,0.00,VWS V14.01,2013-12-09 00:00:00,
2013-12-08 18:05:00,16.3,13.4,30.13,WSW,249,0.0,1.0,88,0.00,,,0.00,VWS V14.01,2013-12-09 00:05:00,
2013-12-08 18:10:00,16.2,13.3,30.12,NW,305,1.0,3.0,88,0.00,,,0.00,VWS V14.01,2013-12-09 00:10:00,
2013-12-08 18:16:00,16.2,13.5,30.12,NW,308,2.0,3.0,89,0.00,,,0.00,VWS V14.01,2013-12-09 00:16:00,
2013-12-08 18:21:00,16.2,13.5,30.13,NW,304,2.0,4.0,89,0.00,,,0.00,VWS V14.01,2013-12-09 00:21:00,
2013-12-08 18:26:00,16.2,13.5,30.13,WNW,301,2.0,2.0,89,0.00,,,0.00,VWS V14.01,2013-12-09 00:26:00,
2013-12-08 18:31:00,16.2,13.5,30.13,WNW,295,2.0,5.0,89,0.00,,,0.00,VWS V14.01,2013-12-09 00:31:00,
2013-12-08 18:36:00,16.2,13.5,30.13,WNW,296,1.0,5.0,89,0.00,,,0.00,VWS V14.01,2013-12-09 00:36:00,
2013-12-08 18:42:00,16.1,13.4,30.14,WNW,283,2.0,5.0,89,0.00,,,0.00,VWS V14.01,2013-12-09 00:42:00,
2013-12-08 18:47:00,16.2,13.5,30.14,WNW,291,3.0,4.0,89,0.00,,,0.00,VWS V14.01,2013-12-09 00:47:00,
2013-12-08 18:52:00,16.2,13.8,30.15,WNW,283,1.0,3.0,90,0.00,,,0.00,VWS V14.01,2013-12-09 00:52:00,
2013-12-08 18:57:00,16.2,13.8,30.15,NW,305,5.0,5.0,90,0.00,,,0.00,VWS V14.01,2013-12-09 00:57:00,
2013-12-08 19:02:00,16.2,13.8,30.16,WNW,290,2.0,3.0,90,0.00,,,0.00,VWS V14.01,2013-12-09 01:02:00,
2013-12-08 19:07:00,16.2,13.8,30.16,West,280,2.0,3.0,90,0.00,,,0.00,VWS V14.01,2013-12-09 01:07:00,
2013-12-08 19:12:00,16.2,13.8,30.16,West,276,2.0,3.0,90,0.00,,,0.00,VWS V14.01,2013-12-09 01:12:00,
2013-12-08 19:18:00,16.2,13.8,30.16,WNW,300,0.0,3.0,90,0.00,,,0.00,VWS V14.01,2013-12-09 01:18:00,
2013-12-08 19:23:00,16.2,13.8,30.16,West,262,3.0,4.0,90,0.00,,,0.00,VWS V14.01,2013-12-09 01:23:00,
2013-12-08 19:28:00,16.2,13.8,30.16,NW,312,2.0,5.0,90,0.00,,,0.00,VWS V14.01,2013-12-09 01:28:00,
2013-12-08 19:33:00,16.2,13.8,30.16,WNW,283,3.0,4.0,90,0.00,,,0.00,VWS V14.01,2013-12-09 01:33:00,
2013-12-08 19:38:00,16.2,13.8,30.16,WNW,290,3.0,5.0,90,0.00,,,0.00,VWS V14.01,2013-12-09 01:38:00,
2013-12-08 19:43:00,16.2,13.8,30.16,West,272,5.0,6.0,90,0.00,,,0.00,VWS V14.01,2013-12-09 01:43:00,
2013-12-08 19:48:00,16.2,13.8,30.16,NW,310,3.0,6.0,90,0.00,,,0.00,VWS V14.01,2013-12-09 01:48:00,
2013-12-08 19:53:00,16.1,13.7,30.17,WNW,294,5.0,8.0,90,0.00,,,0.00,VWS V14.01,2013-12-09 01:53:00,
2013-12-08 19:58:00,16.1,13.7,30.17,West,268,3.0,4.0,90,0.00,,,0.00,VWS V14.01,2013-12-09 01:58:00,
2013-12-08 20:03:00,16.1,13.7,30.17,WNW,303,6.0,6.0,90,0.00,,,0.00,VWS V14.01,2013-12-09 02:03:00,
2013-12-08 20:08:00,16.1,13.7,30.17,WNW,288,4.0,5.0,90,0.00,,,0.00,VWS V14.01,2013-12-09 02:08:00,
2013-12-08 20:13:00,16.1,13.7,30.17,WNW,286,2.0,4.0,90,0.00,,,0.00,VWS V14.01,2013-12-09 02:13:00,
2013-12-08 20:18:00,16.0,13.6,30.17,NW,322,2.0,4.0,90,0.00,,,0.00,VWS V14.01,2013-12-09 02:18:00,
2013-12-08 20:23:00,16.0,13.6,30.17,WNW,295,4.0,7.0,90,0.00,,,0.00,VWS V14.01,2013-12-09 02:23:00,
2013-12-08 20:29:00,15.9,13.5,30.17,WNW,299,2.0,7.0,90,0.00,,,0.00,VWS V14.01,2013-12-09 02:29:00,
2013-12-08 20:34:00,15.9,13.5,30.17,WNW,293,4.0,4.0,90,0.00,,,0.00,VWS V14.01,2013-12-09 02:34:00,
2013-12-08 20:39:00,15.8,13.4,30.17,NW,316,6.0,6.0,90,0.00,,,0.00,VWS V14.01,2013-12-09 02:39:00,
2013-12-08 20:44:00,15.7,13.0,30.17,WNW,289,3.0,4.0,89,0.00,,,0.00,VWS V14.01,2013-12-09 02:44:00,
2013-12-08 20:49:00,15.7,13.0,30.18,NW,306,1.0,5.0,89,0.00,,,0.00,VWS V14.01,2013-12-09 02:49:00,
2013-12-08 20:54:00,15.6,12.9,30.17,WNW,299,3.0,8.0,89,0.00,,,0.00,VWS V14.01,2013-12-09 02:54:00,
2013-12-08 20:59:00,15.5,12.8,30.17,WNW,294,4.0,5.0,89,0.00,,,0.00,VWS V14.01,2013-12-09 02:59:00,
2013-12-08 21:04:00,15.5,12.8,30.17,NW,324,2.0,5.0,89,0.00,,,0.00,VWS V14.01,2013-12-09 03:04:00,
2013-12-08 21:09:00,15.4,12.7,30.17,WNW,291,2.0,4.0,89,0.00,,,0.00,VWS V14.01,2013-12-09 03:09:00,
2013-12-08 21:14:00,15.4,12.7,30.17,NW,311,3.0,3.0,89,0.00,,,0.00,VWS V14.01,2013-12-09 03:14:00,
2013-12-08 21:19:00,15.3,12.6,30.17,WNW,294,2.0,3.0,89,0.00,,,0.00,VWS V14.01,2013-12-09 03:19:00,
2013-12-08 21:24:00,15.2,12.6,30.17,NW,324,2.0,2.0,89,0.00,,,0.00,VWS V14.01,2013-12-09 03:24:00,
2013-12-08 21:29:00,15.0,12.4,30.17,NW,318,2.0,4.0,89,0.00,,,0.00,VWS V14.01,2013-12-09 03:29:00,
2013-12-08 21:34:00,14.8,12.1,30.17,NW,311,1.0,5.0,89,0.00,,,0.00,VWS V14.01,2013-12-09 03:34:00,
2013-12-08 21:39:00,14.5,11.6,30.17,WNW,292,3.0,5.0,88,0.00,,,0.00,VWS V14.01,2013-12-09 03:39:00,
2013-12-08 21:44:00,14.3,11.4,30.18,WNW,289,1.0,3.0,88,0.00,,,0.00,VWS V14.01,2013-12-09 03:44:00,
2013-12-08 21:49:00,14.1,11.5,30.18,WNW,295,2.0,2.0,89,0.00,,,0.00,VWS V14.01,2013-12-09 03:49:00,
2013-12-08 21:54:00,13.9,11.3,30.18,NW,306,5.0,6.0,89,0.00,,,0.00,VWS V14.01,2013-12-09 03:54:00,
2013-12-08 21:59:00,13.7,11.1,30.18,WNW,299,4.0,5.0,89,0.00,,,0.00,VWS V14.01,2013-12-09 03:59:00,
2013-12-08 22:04:00,13.5,10.9,30.18,WNW,296,2.0,4.0,89,0.00,,,0.00,VWS V14.01,2013-12-09 04:04:00,
2013-12-08 22:09:00,13.4,10.8,30.19,WNW,301,2.0,4.0,89,0.00,,,0.00,VWS V14.01,2013-12-09 04:09:00,
2013-12-08 22:14:00,13.1,10.5,30.19,NW,306,2.0,5.0,89,0.00,,,0.00,VWS V14.01,2013-12-09 04:14:00,
2013-12-08 22:19:00,13.0,10.4,30.19,WNW,303,5.0,6.0,89,0.00,,,0.00,VWS V14.01,2013-12-09 04:19:00,
2013-12-08 22:24:00,12.8,10.2,30.20,West,280,3.0,6.0,89,0.00,,,0.00,VWS V14.01,2013-12-09 04:24:00,
2013-12-08 22:30:00,12.7,10.1,30.20,NW,308,2.0,7.0,89,0.00,,,0.00,VWS V14.01,2013-12-09 04:30:00,
2013-12-08 22:35:00,12.7,10.1,30.20,WNW,302,2.0,3.0,89,0.00,,,0.00,VWS V14.01,2013-12-09 04:35:00,
2013-12-08 22:40:00,12.5,9.9,30.20,West,276,4.0,4.0,89,0.00,,,0.00,VWS V14.01,2013-12-09 04:40:00,
2013-12-08 22:45:00,12.4,9.8,30.20,WNW,291,2.0,7.0,89,0.00,,SCT110,0.00,VWS V14.01,2013-12-09 04:45:00,
2013-12-08 22:50:00,12.2,9.3,30.20,WNW,301,2.0,5.0,88,0.00,,SCT110,0.00,VWS V14.01,2013-12-09 04:50:00,
2013-12-08 22:55:00,12.0,9.1,30.21,WNW,298,1.0,5.0,88,0.00,,SCT110,0.00,VWS V14.01,2013-12-09 04:55:00,
2013-12-08 23:00:00,11.8,8.9,30.21,WNW,289,5.0,6.0,88,0.00,,SCT110,0.00,VWS V14.01,2013-12-09 05:00:00,
2013-12-08 23:01:00,11.8,8.9,30.21,NW,308,4.0,6.0,88,0.00,,SCT110,0.00,VWS V14.01,2013-12-09 05:01:00,
2013-12-08 23:03:00,11.8,8.9,30.21,WNW,293,5.0,5.0,88,0.00,,SCT110,0.00,VWS V14.01,2013-12-09 05:03:00,
2013-12-08 23:08:00,11.7,9.1,30.21,WNW,292,2.0,5.0,89,0.00,,SCT110,0.00,VWS V14.01,2013-12-09 05:08:00,
2013-12-08 23:13:00,11.5,8.6,30.21,WNW,287,3.0,7.0,88,0.00,,SCT110,0.00,VWS V14.01,2013-12-09 05:13:00,
2013-12-08 23:18:00,11.5,8.9,30.21,WNW,297,2.0,4.0,89,0.00,,SCT110,0.00,VWS V14.01,2013-12-09 05:18:00,
2013-12-08 23:23:00,11.4,8.5,30.21,NW,306,2.0,5.0,88,0.00,,SCT110,0.00,VWS V14.01,2013-12-09 05:23:00,
2013-12-08 23:28:00,11.2,8.4,30.21,WNW,295,3.0,4.0,88,0.00,,SCT110,0.00,VWS V14.01,2013-12-09 05:28:00,
2013-12-08 23:33:00,11.2,8.4,30.22,West,280,3.0,6.0,88,0.00,,SCT110,0.00,VWS V14.01,2013-12-09 05:33:00,
2013-12-08 23:38:00,11.2,8.6,30.22,West,270,3.0,6.0,89,0.00,,SCT110,0.00,VWS V14.01,2013-12-09 05:38:00,
2013-12-08 23:44:00,11.1,8.2,30.22,WNW,287,4.0,7.0,88,0.00,,FEW110,0.00,VWS V14.01,2013-12-09 05:44:00,
2013-12-08 23:49:00,11.1,8.2,30.23,WNW,288,3.0,5.0,88,0.00,,FEW110,0.00,VWS V14.01,2013-12-09 05:49:00,
2013-12-08 23:54:00,11.0,8.1,30.22,WNW,299,3.0,5.0,88,0.00,,FEW110,0.00,VWS V14.01,2013-12-09 05:54:00,
2013-12-08 23:59:00,10.9,8.1,30.22,WNW,287,4.0,6.0,88,0.00,,FEW110,0.00,VWS V14.01,2013-12-09 05:59:00,